This is the latest recevied weather packets stored in our database for station/object KF4PPJ. If no packets are shown the sender has not sent any weather packets the latest 10 day(s).
| Time | Temp. | Humidity | Pressure | Rain* | Wind** | Luminosity | Snow |
|---|---|---|---|---|---|---|---|
| 1777647338 | 11.11° C | 97% | 1020 hPa | 0 mm | - | 56 W/m² | - |
| 1777647036 | 10.56° C | 97% | 1020.1 hPa | 0 mm | - | 55 W/m² | - |
| 1777646732 | 10.56° C | 97% | 1020 hPa | 0 mm | - | 53 W/m² | - |
| 1777646427 | 10° C | 97% | 1020 hPa | 0 mm | - | 51 W/m² | - |
| 1777646124 | 9.44° C | 97% | 1019.9 hPa | 0 mm | - | 48 W/m² | - |
| 1777645821 | 9.44° C | 97% | 1019.9 hPa | 0 mm | - | 44 W/m² | - |
| 1777645518 | 9.44° C | 97% | 1020 hPa | 0 mm | - | 38 W/m² | - |
| 1777645214 | 8.89° C | 97% | 1019.8 hPa | 0 mm | - | 34 W/m² | - |
| 1777644910 | 8.89° C | 97% | 1019.7 hPa | 0 mm | - | 32 W/m² | - |
| 1777644608 | 8.89° C | 97% | 1019.7 hPa | 0 mm | - | 29 W/m² | - |
| 1777644303 | 8.89° C | 97% | 1019.6 hPa | 0 mm | - | 28 W/m² | - |
| 1777643999 | 8.89° C | 97% | 1019.5 hPa | 0 mm | - | 26 W/m² | - |
| 1777643696 | 8.89° C | 97% | 1019.3 hPa | 0 mm | - | 24 W/m² | - |
| 1777643394 | 8.89° C | 97% | 1019.5 hPa | 0 mm | - | 23 W/m² | - |
| 1777643090 | 8.89° C | 97% | 1019.5 hPa | 0 mm | - | 23 W/m² | - |
| 1777642787 | 8.89° C | 97% | 1019.4 hPa | 0 mm | - | 21 W/m² | - |
| 1777642484 | 8.89° C | 97% | 1019.5 hPa | 0 mm | - | 20 W/m² | - |
| 1777642180 | 8.89° C | 97% | 1019.5 hPa | 0 mm | - | 17 W/m² | - |
| 1777641877 | 8.89° C | 97% | 1019.3 hPa | 0 mm | - | 13 W/m² | - |
| 1777641572 | 8.89° C | 97% | 1019.3 hPa | 0 mm | - | 11 W/m² | - |
| 1777641272 | 8.89° C | 97% | 1019.5 hPa | 0 mm | - | 8 W/m² | - |
| 1777640969 | 8.33° C | 97% | 1019.3 hPa | 0 mm | - | 6 W/m² | - |
| 1777640666 | 8.89° C | 96% | 1019 hPa | 0 mm | - | 4 W/m² | - |
| 1777640362 | 8.89° C | 97% | 1019 hPa | 0 mm | - | 3 W/m² | - |
| 1777640059 | 8.89° C | 96% | 1019.4 hPa | 0 mm | - | 1 W/m² | - |
* Rain latest hour (hover to see other rain measurements)
** Current wind speed in m/s (hover to see current wind gust speed)